Time,TemperatureF,DewpointF,PressureIn,WindDirection,WindDirectionDegrees,WindSpeedMPH,WindSpeedGustMPH,Humidity,HourlyPrecipIn,Conditions,Clouds,dailyrainin,SoftwareType,DateUTC
2013-06-04 00:01:00,66.0,59.4,30.06,North,0,0.0,3.0,79,0.00,,,0.00,meteohub,2013-06-04 04:01:00,
2013-06-04 00:07:00,66.0,59.4,30.06,North,0,0.0,3.0,79,0.00,,,0.00,meteohub,2013-06-04 04:07:00,
2013-06-04 00:12:00,64.8,58.8,30.06,SW,225,2.0,2.0,81,0.00,,,0.00,meteohub,2013-06-04 04:12:00,
2013-06-04 00:17:00,64.4,58.8,30.06,SE,135,1.0,2.0,82,0.00,,,0.00,meteohub,2013-06-04 04:17:00,
2013-06-04 00:22:00,64.4,58.8,30.06,SW,225,1.0,2.0,82,0.00,,,0.00,meteohub,2013-06-04 04:22:00,
2013-06-04 00:27:00,64.4,58.8,30.06,South,180,2.0,2.0,82,0.00,,,0.00,meteohub,2013-06-04 04:27:00,
2013-06-04 00:32:00,64.8,59.2,30.06,SE,135,1.0,3.0,82,0.00,,,0.00,meteohub,2013-06-04 04:32:00,
2013-06-04 00:37:00,64.9,59.0,30.06,WSW,248,1.0,3.0,81,0.00,,,0.00,meteohub,2013-06-04 04:37:00,
2013-06-04 00:42:00,64.8,59.2,30.06,South,180,2.0,3.0,82,0.00,,,0.00,meteohub,2013-06-04 04:42:00,
2013-06-04 00:47:00,64.4,58.8,30.06,North,0,2.0,2.0,82,0.00,,,0.00,meteohub,2013-06-04 04:47:00,
2013-06-04 00:52:00,64.4,58.8,30.05,NW,315,4.0,4.0,82,0.00,,,0.00,meteohub,2013-06-04 04:52:00,
2013-06-04 00:57:00,65.3,59.0,30.06,SW,225,2.0,6.0,80,0.00,,,0.00,meteohub,2013-06-04 04:57:00,
2013-06-04 01:02:00,65.7,59.0,30.06,East,90,4.0,6.0,79,0.00,,,0.00,meteohub,2013-06-04 05:02:00,
2013-06-04 01:07:00,65.5,59.2,30.06,North,0,0.0,6.0,80,0.00,,,0.00,meteohub,2013-06-04 05:07:00,
2013-06-04 01:12:00,64.8,58.8,30.06,South,180,1.0,4.0,81,0.00,,,0.00,meteohub,2013-06-04 05:12:00,
2013-06-04 01:17:00,63.9,58.3,30.06,South,180,3.0,4.0,82,0.00,,,0.00,meteohub,2013-06-04 05:17:00,
2013-06-04 01:22:00,63.1,57.9,30.06,West,270,2.0,4.0,83,0.00,,,0.00,meteohub,2013-06-04 05:22:00,
2013-06-04 01:27:00,62.4,57.9,30.06,SE,135,2.0,4.0,85,0.00,,,0.00,meteohub,2013-06-04 05:27:00,
2013-06-04 01:32:00,62.1,57.7,30.06,South,180,2.0,4.0,86,0.00,,,0.00,meteohub,2013-06-04 05:32:00,
2013-06-04 01:37:00,61.7,57.4,30.06,SW,225,0.0,2.0,86,0.00,,,0.00,meteohub,2013-06-04 05:37:00,
2013-06-04 01:42:00,61.3,57.4,30.06,SW,225,2.0,2.0,87,0.00,,,0.00,meteohub,2013-06-04 05:42:00,
2013-06-04 01:47:00,61.2,57.2,30.06,South,180,2.0,2.0,87,0.00,,,0.00,meteohub,2013-06-04 05:47:00,
2013-06-04 01:52:00,61.2,57.2,30.06,West,270,0.0,2.0,87,0.00,,,0.00,meteohub,2013-06-04 05:52:00,
2013-06-04 01:57:00,61.0,57.4,30.06,West,270,0.0,2.0,88,0.00,,,0.00,meteohub,2013-06-04 05:57:00,
2013-06-04 02:02:00,60.8,57.2,30.06,South,180,1.0,2.0,88,0.00,,,0.00,meteohub,2013-06-04 06:02:00,
2013-06-04 02:07:00,60.8,57.2,30.06,South,180,1.0,2.0,88,0.00,,,0.00,meteohub,2013-06-04 06:07:00,
2013-06-04 02:12:00,60.1,57.4,30.06,West,270,0.0,2.0,91,0.00,,,0.00,meteohub,2013-06-04 06:12:00,
2013-06-04 02:17:00,59.5,57.2,30.06,South,180,0.0,1.0,92,0.00,,,0.00,meteohub,2013-06-04 06:17:00,
2013-06-04 02:22:00,59.5,57.2,30.06,West,270,0.0,1.0,92,0.00,,,0.00,meteohub,2013-06-04 06:22:00,
2013-06-04 02:27:00,59.2,56.8,30.06,West,270,2.0,0.0,92,0.00,,,0.00,meteohub,2013-06-04 06:27:00,
2013-06-04 02:32:00,59.0,57.0,30.06,SW,225,1.0,2.0,93,0.00,,,0.00,meteohub,2013-06-04 06:32:00,
2013-06-04 02:37:00,58.8,57.0,30.06,South,180,2.0,2.0,94,0.00,,,0.00,meteohub,2013-06-04 06:37:00,
2013-06-04 02:42:00,59.0,57.2,30.06,NW,315,2.0,2.0,94,0.00,,,0.00,meteohub,2013-06-04 06:42:00,
2013-06-04 02:47:00,58.8,57.4,30.06,West,270,1.0,2.0,95,0.00,,,0.00,meteohub,2013-06-04 06:47:00,
2013-06-04 02:52:00,58.8,57.4,30.06,West,270,1.0,2.0,95,0.00,,,0.00,meteohub,2013-06-04 06:52:00,
2013-06-04 02:57:00,58.5,57.0,30.06,NW,315,0.0,2.0,95,0.00,,,0.00,meteohub,2013-06-04 06:57:00,
2013-06-04 03:02:00,58.3,56.8,30.06,SW,225,0.0,2.0,95,0.00,,,0.00,meteohub,2013-06-04 07:02:00,
2013-06-04 03:07:00,58.1,56.7,30.06,SW,225,0.0,2.0,95,0.00,,,0.00,meteohub,2013-06-04 07:07:00,
2013-06-04 03:12:00,57.9,56.8,30.06,South,180,2.0,2.0,96,0.00,,,0.00,meteohub,2013-06-04 07:12:00,
2013-06-04 03:17:00,57.7,56.7,30.06,SW,225,1.0,2.0,96,0.00,,,0.00,meteohub,2013-06-04 07:17:00,
2013-06-04 03:22:00,57.7,56.7,30.06,South,180,1.0,2.0,96,0.00,,,0.00,meteohub,2013-06-04 07:22:00,
2013-06-04 03:27:00,57.7,56.8,30.06,West,270,1.0,2.0,97,0.00,,,0.00,meteohub,2013-06-04 07:27:00,
2013-06-04 03:32:00,57.7,56.8,30.06,West,270,1.0,2.0,97,0.00,,,0.00,meteohub,2013-06-04 07:32:00,
2013-06-04 03:37:00,57.7,56.8,30.06,West,270,1.0,2.0,97,0.00,,,0.00,meteohub,2013-06-04 07:37:00,
2013-06-04 03:42:00,57.7,56.8,30.06,NW,315,0.0,2.0,97,0.00,,,0.00,meteohub,2013-06-04 07:42:00,
2013-06-04 03:47:00,57.6,56.7,30.06,NW,315,0.0,2.0,97,0.00,,,0.00,meteohub,2013-06-04 07:47:00,
2013-06-04 03:52:00,57.7,56.8,30.06,NE,45,2.0,2.0,97,0.00,,,0.00,meteohub,2013-06-04 07:52:00,
2013-06-04 03:57:00,57.6,56.7,30.06,South,180,0.0,2.0,97,0.00,,,0.00,meteohub,2013-06-04 07:57:00,
2013-06-04 04:02:00,57.6,56.7,30.06,NW,315,0.0,2.0,97,0.00,,,0.00,meteohub,2013-06-04 08:02:00,
2013-06-04 04:07:00,57.6,56.7,30.06,NW,315,0.0,2.0,97,0.00,,,0.00,meteohub,2013-06-04 08:07:00,
2013-06-04 04:12:00,56.8,56.3,30.06,West,270,0.0,1.0,98,0.00,,,0.00,meteohub,2013-06-04 08:12:00,
2013-06-04 04:17:00,56.8,56.3,30.06,South,180,0.0,1.0,98,0.00,,,0.00,meteohub,2013-06-04 08:17:00,
2013-06-04 04:22:00,56.7,56.3,30.06,South,180,2.0,2.0,99,0.00,,,0.00,meteohub,2013-06-04 08:22:00,
2013-06-04 04:27:00,56.5,56.1,30.06,South,180,1.0,2.0,99,0.00,,,0.00,meteohub,2013-06-04 08:27:00,
2013-06-04 04:32:00,56.7,56.3,30.06,West,270,0.0,2.0,99,0.00,,,0.00,meteohub,2013-06-04 08:32:00,
2013-06-04 04:37:00,56.7,56.3,30.06,West,270,1.0,2.0,99,0.00,,,0.00,meteohub,2013-06-04 08:37:00,
2013-06-04 04:42:00,56.7,56.3,30.06,South,180,2.0,2.0,99,0.00,,,0.00,meteohub,2013-06-04 08:42:00,
2013-06-04 04:47:00,56.7,56.3,30.06,South,180,1.0,2.0,99,0.00,,,0.00,meteohub,2013-06-04 08:47:00,
2013-06-04 04:52:00,56.7,56.3,30.07,West,270,2.0,2.0,99,0.00,,,0.00,meteohub,2013-06-04 08:52:00,
2013-06-04 04:57:00,56.7,56.3,30.07,East,90,0.0,2.0,99,0.00,,,0.00,meteohub,2013-06-04 08:57:00,
2013-06-04 05:02:00,56.5,56.1,30.07,SW,225,0.0,2.0,99,0.00,,,0.00,meteohub,2013-06-04 09:02:00,
2013-06-04 05:07:00,56.3,55.9,30.07,West,270,0.0,2.0,99,0.00,,,0.00,meteohub,2013-06-04 09:07:00,
2013-06-04 05:12:00,56.1,55.8,30.08,SW,225,0.0,2.0,99,0.00,,,0.00,meteohub,2013-06-04 09:12:00,
2013-06-04 05:17:00,55.9,55.6,30.08,SW,225,2.0,2.0,99,0.00,,,0.00,meteohub,2013-06-04 09:17:00,
2013-06-04 05:22:00,55.8,55.4,30.08,South,180,0.0,2.0,99,0.00,,,0.00,meteohub,2013-06-04 09:22:00,
2013-06-04 05:27:00,55.8,55.4,30.08,SW,225,1.0,2.0,99,0.00,,,0.00,meteohub,2013-06-04 09:27:00,
2013-06-04 05:32:00,55.8,55.4,30.09,South,180,2.0,2.0,99,0.00,,,0.00,meteohub,2013-06-04 09:32:00,
2013-06-04 05:37:00,55.9,55.6,30.08,SE,135,1.0,2.0,99,0.00,,,0.00,meteohub,2013-06-04 09:37:00,
2013-06-04 05:42:00,56.1,55.8,30.09,South,180,1.0,2.0,99,0.00,,,0.00,meteohub,2013-06-04 09:42:00,
2013-06-04 05:47:00,56.1,55.8,30.09,South,180,0.0,2.0,99,0.00,,,0.00,meteohub,2013-06-04 09:47:00,
2013-06-04 05:52:00,56.1,55.8,30.09,SE,135,0.0,3.0,99,0.00,,,0.00,meteohub,2013-06-04 09:52:00,
2013-06-04 05:57:00,55.9,55.6,30.09,North,0,1.0,3.0,99,0.00,,,0.00,meteohub,2013-06-04 09:57:00,
2013-06-04 06:02:00,55.9,55.6,30.10,North,0,1.0,3.0,99,0.00,,,0.00,meteohub,2013-06-04 10:02:00,
2013-06-04 06:07:00,55.6,55.2,30.09,North,0,0.0,2.0,99,0.00,,,0.00,meteohub,2013-06-04 10:07:00,
2013-06-04 06:12:00,55.6,55.2,30.10,South,180,0.0,2.0,99,0.00,,,0.00,meteohub,2013-06-04 10:12:00,
2013-06-04 06:17:00,55.6,55.2,30.10,East,90,0.0,1.0,99,0.00,,,0.00,meteohub,2013-06-04 10:17:00,
2013-06-04 06:22:00,55.8,55.4,30.10,North,0,2.0,0.0,99,0.00,,,0.00,meteohub,2013-06-04 10:22:00,
2013-06-04 06:27:00,55.9,55.6,30.10,SE,135,1.0,2.0,99,0.00,,,0.00,meteohub,2013-06-04 10:27:00,
2013-06-04 06:32:00,56.1,55.8,30.10,North,0,1.0,2.0,99,0.00,,,0.00,meteohub,2013-06-04 10:32:00,
2013-06-04 06:37:00,56.5,56.1,30.11,NW,315,2.0,2.0,99,0.00,,,0.00,meteohub,2013-06-04 10:37:00,
2013-06-04 06:42:00,57.2,56.8,30.10,NE,45,2.0,2.0,99,0.00,,,0.00,meteohub,2013-06-04 10:42:00,
2013-06-04 06:47:00,57.9,57.6,30.11,NE,45,2.0,3.0,99,0.00,,,0.00,meteohub,2013-06-04 10:47:00,
2013-06-04 06:52:00,58.6,58.3,30.11,North,0,2.0,3.0,99,0.00,,,0.00,meteohub,2013-06-04 10:52:00,
2013-06-04 06:57:00,59.2,58.8,30.11,NW,315,2.0,3.0,99,0.00,,,0.00,meteohub,2013-06-04 10:57:00,
2013-06-04 07:02:00,59.7,59.4,30.11,NE,45,2.0,3.0,99,0.00,,,0.00,meteohub,2013-06-04 11:02:00,
2013-06-04 07:07:00,60.6,60.3,30.11,NW,315,3.0,4.0,99,0.00,,,0.00,meteohub,2013-06-04 11:07:00,
2013-06-04 07:12:00,61.5,60.6,30.11,North,0,4.0,4.0,97,0.00,,,0.00,meteohub,2013-06-04 11:12:00,
2013-06-04 07:17:00,61.9,60.4,30.11,NW,315,4.0,4.0,95,0.00,,,0.00,meteohub,2013-06-04 11:17:00,
2013-06-04 07:22:00,62.6,60.3,30.11,NW,315,4.0,4.0,92,0.00,,,0.00,meteohub,2013-06-04 11:22:00,
2013-06-04 07:27:00,63.0,60.3,30.12,NE,45,2.0,4.0,91,0.00,,,0.00,meteohub,2013-06-04 11:27:00,
2013-06-04 07:32:00,63.5,60.3,30.12,NW,315,2.0,4.0,89,0.00,,,0.00,meteohub,2013-06-04 11:32:00,
2013-06-04 07:37:00,63.9,60.3,30.12,North,0,4.0,4.0,88,0.00,,,0.00,meteohub,2013-06-04 11:37:00,
2013-06-04 07:42:00,64.0,60.1,30.12,North,0,2.0,4.0,87,0.00,,,0.00,meteohub,2013-06-04 11:42:00,
2013-06-04 07:47:00,64.6,61.0,30.13,NE,45,3.0,4.0,88,0.00,,,0.00,meteohub,2013-06-04 11:47:00,
2013-06-04 07:52:00,65.5,61.5,30.13,SE,135,4.0,4.0,87,0.00,,,0.00,meteohub,2013-06-04 11:52:00,
2013-06-04 07:57:00,66.2,61.5,30.13,NW,315,3.0,4.0,85,0.00,,,0.00,meteohub,2013-06-04 11:57:00,
2013-06-04 08:02:00,66.9,61.9,30.13,NE,45,4.0,4.0,84,0.00,,,0.00,meteohub,2013-06-04 12:02:00,
2013-06-04 08:07:00,67.6,61.5,30.13,NW,315,5.0,5.0,81,0.00,,,0.00,meteohub,2013-06-04 12:07:00,
2013-06-04 08:12:00,67.8,61.0,30.13,North,0,5.0,6.0,79,0.00,,,0.00,meteohub,2013-06-04 12:12:00,
2013-06-04 08:17:00,68.0,60.8,30.13,South,180,4.0,6.0,78,0.00,,,0.00,meteohub,2013-06-04 12:17:00,
2013-06-04 08:22:00,68.9,61.3,30.13,West,270,3.0,6.0,77,0.00,,,0.00,meteohub,2013-06-04 12:22:00,
2013-06-04 08:27:00,69.3,61.7,30.13,SW,225,3.0,6.0,77,0.00,,,0.00,meteohub,2013-06-04 12:27:00,
2013-06-04 08:32:00,69.8,61.9,30.13,North,0,4.0,4.0,76,0.00,,,0.00,meteohub,2013-06-04 12:32:00,
2013-06-04 08:37:00,70.5,61.9,30.14,NE,45,4.0,6.0,74,0.00,,,0.00,meteohub,2013-06-04 12:37:00,
2013-06-04 08:42:00,70.9,62.2,30.14,North,0,4.0,6.0,74,0.00,,,0.00,meteohub,2013-06-04 12:42:00,
2013-06-04 08:47:00,71.1,61.5,30.14,North,0,4.0,6.0,72,0.00,,,0.00,meteohub,2013-06-04 12:47:00,
2013-06-04 08:52:00,71.2,61.7,30.14,NNW,338,6.0,9.0,72,0.00,,,0.00,meteohub,2013-06-04 12:52:00,
2013-06-04 08:57:00,71.4,61.9,30.14,North,0,7.0,9.0,72,0.00,,,0.00,meteohub,2013-06-04 12:57:00,
2013-06-04 09:02:00,71.2,61.7,30.14,North,0,6.0,9.0,72,0.00,,,0.00,meteohub,2013-06-04 13:02:00,
2013-06-04 09:07:00,72.0,62.1,30.14,North,0,6.0,9.0,71,0.00,,,0.00,meteohub,2013-06-04 13:07:00,
2013-06-04 09:12:00,72.1,61.3,30.15,NE,45,4.0,9.0,69,0.00,,,0.00,meteohub,2013-06-04 13:12:00,
2013-06-04 09:18:00,72.7,62.8,30.15,North,0,8.0,8.0,71,0.00,,,0.00,meteohub,2013-06-04 13:18:00,
2013-06-04 09:23:00,73.0,63.1,30.15,NW,315,4.0,8.0,71,0.00,,,0.00,meteohub,2013-06-04 13:23:00,
2013-06-04 09:28:00,73.6,63.7,30.15,South,180,5.0,8.0,71,0.00,,,0.00,meteohub,2013-06-04 13:28:00,
2013-06-04 09:33:00,73.8,63.3,30.15,North,0,7.0,8.0,70,0.00,,,0.00,meteohub,2013-06-04 13:33:00,
2013-06-04 09:38:00,73.9,62.8,30.15,NNW,338,8.0,8.0,68,0.00,,,0.00,meteohub,2013-06-04 13:38:00,
2013-06-04 09:43:00,73.9,62.8,30.15,NW,315,4.0,8.0,68,0.00,,,0.00,meteohub,2013-06-04 13:43:00,
2013-06-04 09:48:00,74.3,63.5,30.15,East,90,4.0,8.0,69,0.00,,,0.00,meteohub,2013-06-04 13:48:00,
2013-06-04 09:53:00,74.3,63.1,30.15,North,0,5.0,8.0,68,0.00,,,0.00,meteohub,2013-06-04 13:53:00,
2013-06-04 09:58:00,74.3,62.2,30.15,South,180,7.0,7.0,66,0.00,,,0.00,meteohub,2013-06-04 13:58:00,
2013-06-04 10:03:00,74.3,62.6,30.15,NW,315,7.0,8.0,67,0.00,,,0.00,meteohub,2013-06-04 14:03:00,
2013-06-04 10:08:00,73.8,62.1,30.15,North,0,6.0,8.0,67,0.00,,,0.00,meteohub,2013-06-04 14:08:00,
2013-06-04 10:13:00,74.5,62.4,30.15,NW,315,8.0,10.0,66,0.00,,,0.00,meteohub,2013-06-04 14:13:00,
2013-06-04 10:18:00,75.4,62.4,30.15,SW,225,4.0,10.0,64,0.00,,,0.00,meteohub,2013-06-04 14:18:00,
2013-06-04 10:23:00,75.7,63.1,30.15,North,0,8.0,11.0,65,0.00,,,0.00,meteohub,2013-06-04 14:23:00,
2013-06-04 10:28:00,76.3,63.7,30.15,SW,225,4.0,11.0,65,0.00,,,0.00,meteohub,2013-06-04 14:28:00,
2013-06-04 10:33:00,76.3,62.8,30.15,SE,135,4.0,11.0,63,0.00,,,0.00,meteohub,2013-06-04 14:33:00,
2013-06-04 10:38:00,76.5,62.4,30.15,NW,315,3.0,8.0,62,0.00,,,0.00,meteohub,2013-06-04 14:38:00,
2013-06-04 10:43:00,77.2,63.7,30.15,East,90,3.0,6.0,63,0.00,,,0.00,meteohub,2013-06-04 14:43:00,
2013-06-04 10:48:00,77.2,62.2,30.15,East,90,3.0,5.0,60,0.00,,,0.00,meteohub,2013-06-04 14:48:00,
2013-06-04 10:53:00,77.2,63.7,30.15,East,90,4.0,9.0,63,0.00,,,0.00,meteohub,2013-06-04 14:53:00,
2013-06-04 10:58:00,77.2,61.3,30.15,NW,315,3.0,9.0,58,0.00,,,0.00,meteohub,2013-06-04 14:58:00,
2013-06-04 11:03:00,77.5,63.0,30.15,North,0,5.0,8.0,61,0.00,,,0.00,meteohub,2013-06-04 15:03:00,
2013-06-04 11:08:00,77.7,63.1,30.15,South,180,5.0,6.0,61,0.00,,,0.00,meteohub,2013-06-04 15:08:00,
2013-06-04 11:13:00,77.7,61.7,30.15,South,180,3.0,7.0,58,0.00,,,0.00,meteohub,2013-06-04 15:13:00,
2013-06-04 11:18:00,77.7,61.3,30.15,SE,135,3.0,7.0,57,0.00,,,0.00,meteohub,2013-06-04 15:18:00,
2013-06-04 11:23:00,77.9,63.3,30.15,SE,135,3.0,8.0,61,0.00,,,0.00,meteohub,2013-06-04 15:23:00,
2013-06-04 11:28:00,78.4,63.3,30.15,South,180,4.0,8.0,60,0.00,,,0.00,meteohub,2013-06-04 15:28:00,
2013-06-04 11:33:00,78.4,61.5,30.15,South,180,2.0,8.0,56,0.00,,,0.00,meteohub,2013-06-04 15:33:00,
2013-06-04 11:38:00,78.4,59.9,30.15,South,180,5.0,5.0,53,0.00,,,0.00,meteohub,2013-06-04 15:38:00,
2013-06-04 11:43:00,77.9,60.4,30.15,North,0,3.0,5.0,55,0.00,,,0.00,meteohub,2013-06-04 15:43:00,
2013-06-04 11:48:00,78.1,60.6,30.15,North,0,5.0,6.0,55,0.00,,,0.00,meteohub,2013-06-04 15:48:00,
2013-06-04 11:53:00,78.4,61.9,30.15,NW,315,4.0,6.0,57,0.00,,,0.00,meteohub,2013-06-04 15:53:00,
2013-06-04 11:58:00,78.8,60.8,30.15,North,0,5.0,6.0,54,0.00,,,0.00,meteohub,2013-06-04 15:58:00,
2013-06-04 12:03:00,79.0,59.9,30.15,NE,45,4.0,6.0,52,0.00,,,0.00,meteohub,2013-06-04 16:03:00,
2013-06-04 12:08:00,78.8,59.2,30.15,North,0,4.0,5.0,51,0.00,,,0.00,meteohub,2013-06-04 16:08:00,
2013-06-04 12:13:00,77.4,58.3,30.15,South,180,3.0,5.0,52,0.00,,,0.00,meteohub,2013-06-04 16:13:00,
2013-06-04 12:18:00,76.1,57.2,30.16,South,180,2.0,4.0,52,0.00,,,0.00,meteohub,2013-06-04 16:18:00,
2013-06-04 12:23:00,77.2,59.2,30.16,North,0,3.0,4.0,54,0.00,,,0.00,meteohub,2013-06-04 16:23:00,
2013-06-04 12:28:00,77.9,59.9,30.16,WNW,293,8.0,8.0,54,0.00,,,0.00,meteohub,2013-06-04 16:28:00,
2013-06-04 12:33:00,78.8,59.2,30.16,South,180,5.0,8.0,51,0.00,,,0.00,meteohub,2013-06-04 16:33:00,
2013-06-04 12:38:00,79.0,60.4,30.15,SW,225,3.0,8.0,53,0.00,,,0.00,meteohub,2013-06-04 16:38:00,
2013-06-04 12:43:00,78.1,58.5,30.15,North,0,2.0,8.0,51,0.00,,,0.00,meteohub,2013-06-04 16:43:00,
2013-06-04 12:48:00,77.5,57.9,30.15,North,0,4.0,7.0,51,0.00,,,0.00,meteohub,2013-06-04 16:48:00,
2013-06-04 12:53:00,78.1,61.2,30.15,SW,225,4.0,7.0,56,0.00,,,0.00,meteohub,2013-06-04 16:53:00,
2013-06-04 12:58:00,79.0,58.1,30.15,SE,135,5.0,7.0,49,0.00,,,0.00,meteohub,2013-06-04 16:58:00,
2013-06-04 13:03:00,79.2,60.1,30.14,NE,45,5.0,5.0,52,0.00,,,0.00,meteohub,2013-06-04 17:03:00,
2013-06-04 13:08:00,79.7,57.0,30.14,NE,45,8.0,8.0,46,0.00,,,0.00,meteohub,2013-06-04 17:08:00,
2013-06-04 13:13:00,79.5,57.6,30.14,NNE,23,4.0,9.0,47,0.00,,,0.00,meteohub,2013-06-04 17:13:00,
2013-06-04 13:18:00,78.8,56.3,30.14,North,0,5.0,9.0,46,0.00,,,0.00,meteohub,2013-06-04 17:18:00,
2013-06-04 13:23:00,77.9,56.7,30.14,North,0,5.0,9.0,48,0.00,,,0.00,meteohub,2013-06-04 17:23:00,
2013-06-04 13:28:00,77.7,56.5,30.14,NW,315,3.0,7.0,48,0.00,,,0.00,meteohub,2013-06-04 17:28:00,
2013-06-04 13:34:00,77.7,57.6,30.14,NE,45,4.0,5.0,50,0.00,,,0.00,meteohub,2013-06-04 17:34:00,
2013-06-04 13:39:00,78.8,58.1,30.14,NE,45,3.0,5.0,49,0.00,,,0.00,meteohub,2013-06-04 17:39:00,
2013-06-04 13:44:00,79.7,57.7,30.14,East,90,2.0,4.0,47,0.00,,,0.00,meteohub,2013-06-04 17:44:00,
2013-06-04 13:49:00,80.2,58.1,30.14,South,180,2.0,4.0,47,0.00,,,0.00,meteohub,2013-06-04 17:49:00,
2013-06-04 13:54:00,80.2,56.3,30.14,South,180,2.0,4.0,44,0.00,,,0.00,meteohub,2013-06-04 17:54:00,
2013-06-04 13:59:00,80.2,57.0,30.14,North,0,1.0,4.0,45,0.00,,,0.00,meteohub,2013-06-04 17:59:00,
2013-06-04 14:04:00,80.4,57.2,30.14,North,0,2.0,4.0,45,0.00,,,0.00,meteohub,2013-06-04 18:04:00,
2013-06-04 14:09:00,81.1,57.2,30.14,SE,135,3.0,4.0,44,0.00,,,0.00,meteohub,2013-06-04 18:09:00,
2013-06-04 14:14:00,80.6,56.7,30.14,SW,225,4.0,4.0,44,0.00,,,0.00,meteohub,2013-06-04 18:14:00,
2013-06-04 14:19:00,80.1,57.4,30.14,ENE,68,6.0,6.0,46,0.00,,,0.00,meteohub,2013-06-04 18:19:00,
2013-06-04 14:24:00,79.7,57.0,30.14,NE,45,5.0,7.0,46,0.00,,,0.00,meteohub,2013-06-04 18:24:00,
2013-06-04 14:29:00,79.9,58.5,30.14,East,90,6.0,7.0,48,0.00,,,0.00,meteohub,2013-06-04 18:29:00,
2013-06-04 14:34:00,80.1,58.1,30.14,NE,45,4.0,7.0,47,0.00,,,0.00,meteohub,2013-06-04 18:34:00,
2013-06-04 14:39:00,80.2,58.8,30.14,North,0,4.0,7.0,48,0.00,,,0.00,meteohub,2013-06-04 18:39:00,
2013-06-04 14:44:00,80.2,58.1,30.14,North,0,5.0,7.0,47,0.00,,,0.00,meteohub,2013-06-04 18:44:00,
2013-06-04 14:49:00,81.0,57.6,30.13,NW,315,2.0,6.0,45,0.00,,,0.00,meteohub,2013-06-04 18:49:00,
2013-06-04 14:54:00,81.5,58.6,30.13,NE,45,5.0,5.0,46,0.00,,,0.00,meteohub,2013-06-04 18:54:00,
2013-06-04 14:59:00,81.7,58.8,30.13,North,0,8.0,8.0,46,0.00,,,0.00,meteohub,2013-06-04 18:59:00,
2013-06-04 15:04:00,81.3,59.2,30.13,NE,45,6.0,8.0,47,0.00,,,0.00,meteohub,2013-06-04 19:04:00,
2013-06-04 15:09:00,81.3,60.3,30.13,NE,45,5.0,8.0,49,0.00,,,0.00,meteohub,2013-06-04 19:09:00,
2013-06-04 15:14:00,81.3,59.7,30.13,North,0,6.0,8.0,48,0.00,,,0.00,meteohub,2013-06-04 19:14:00,
2013-06-04 15:19:00,80.4,60.1,30.13,North,0,4.0,8.0,50,0.00,,,0.00,meteohub,2013-06-04 19:19:00,
2013-06-04 15:24:00,79.7,59.4,30.13,SE,135,3.0,6.0,50,0.00,,,0.00,meteohub,2013-06-04 19:24:00,
2013-06-04 15:29:00,79.7,59.4,30.13,NE,45,4.0,6.0,50,0.00,,,0.00,meteohub,2013-06-04 19:29:00,
2013-06-04 15:34:00,79.7,59.4,30.13,East,90,4.0,8.0,50,0.00,,,0.00,meteohub,2013-06-04 19:34:00,
2013-06-04 15:39:00,80.1,60.3,30.13,NE,45,6.0,9.0,51,0.00,,,0.00,meteohub,2013-06-04 19:39:00,
2013-06-04 15:44:00,80.2,59.9,30.12,NNW,338,4.0,9.0,50,0.00,,,0.00,meteohub,2013-06-04 19:44:00,
2013-06-04 15:49:00,80.1,59.2,30.12,NE,45,2.0,9.0,49,0.00,,,0.00,meteohub,2013-06-04 19:49:00,
2013-06-04 15:54:00,79.5,58.1,30.12,South,180,4.0,6.0,48,0.00,,,0.00,meteohub,2013-06-04 19:54:00,
2013-06-04 15:59:00,78.8,58.6,30.12,NE,45,2.0,6.0,50,0.00,,,0.00,meteohub,2013-06-04 19:59:00,
2013-06-04 16:04:00,78.8,58.6,30.12,NE,45,2.0,4.0,50,0.00,,,0.00,meteohub,2013-06-04 20:04:00,
2013-06-04 16:09:00,78.8,60.3,30.12,North,0,2.0,4.0,53,0.00,,,0.00,meteohub,2013-06-04 20:09:00,
2013-06-04 16:14:00,79.7,61.0,30.12,NNW,338,4.0,8.0,53,0.00,,,0.00,meteohub,2013-06-04 20:14:00,
2013-06-04 16:19:00,80.4,61.7,30.12,South,180,4.0,8.0,53,0.00,,,0.00,meteohub,2013-06-04 20:19:00,
2013-06-04 16:24:00,80.6,60.8,30.12,South,180,2.0,8.0,51,0.00,,,0.00,meteohub,2013-06-04 20:24:00,
2013-06-04 16:29:00,80.4,61.7,30.11,North,0,9.0,9.0,53,0.00,,,0.00,meteohub,2013-06-04 20:29:00,
2013-06-04 16:34:00,80.2,61.0,30.12,NE,45,6.0,9.0,52,0.00,,,0.00,meteohub,2013-06-04 20:34:00,
2013-06-04 16:39:00,80.1,60.8,30.12,NE,45,5.0,10.0,52,0.00,,,0.00,meteohub,2013-06-04 20:39:00,
2013-06-04 16:45:00,79.9,61.2,30.12,North,0,8.0,10.0,53,0.00,,,0.00,meteohub,2013-06-04 20:45:00,
2013-06-04 16:50:00,79.7,61.0,30.12,East,90,4.0,10.0,53,0.00,,,0.00,meteohub,2013-06-04 20:50:00,
2013-06-04 16:55:00,79.7,61.0,30.12,East,90,4.0,8.0,53,0.00,,,0.00,meteohub,2013-06-04 20:55:00,
2013-06-04 17:00:00,79.3,60.8,30.12,NE,45,7.0,8.0,53,0.00,,,0.00,meteohub,2013-06-04 21:00:00,
2013-06-04 17:05:00,78.3,60.3,30.11,North,0,4.0,6.0,54,0.00,,,0.00,meteohub,2013-06-04 21:05:00,
2013-06-04 17:10:00,78.1,61.2,30.11,North,0,7.0,8.0,56,0.00,,,0.00,meteohub,2013-06-04 21:10:00,
2013-06-04 17:15:00,77.9,61.5,30.12,North,0,8.0,10.0,57,0.00,,,0.00,meteohub,2013-06-04 21:15:00,
2013-06-04 17:20:00,78.1,61.2,30.11,NE,45,10.0,10.0,56,0.00,,,0.00,meteohub,2013-06-04 21:20:00,
2013-06-04 17:25:00,78.3,62.2,30.11,NE,45,4.0,10.0,58,0.00,,,0.00,meteohub,2013-06-04 21:25:00,
2013-06-04 17:30:00,78.3,62.8,30.11,NE,45,6.0,10.0,59,0.00,,,0.00,meteohub,2013-06-04 21:30:00,
2013-06-04 17:35:00,78.3,63.3,30.11,NE,45,8.0,11.0,60,0.00,,,0.00,meteohub,2013-06-04 21:35:00,
2013-06-04 17:40:00,77.7,63.1,30.11,NW,315,4.0,11.0,61,0.00,,,0.00,meteohub,2013-06-04 21:40:00,
2013-06-04 17:45:00,77.7,63.7,30.11,NE,45,8.0,11.0,62,0.00,,,0.00,meteohub,2013-06-04 21:45:00,
2013-06-04 17:50:00,77.4,63.9,30.11,North,0,6.0,9.0,63,0.00,,,0.00,meteohub,2013-06-04 21:50:00,
2013-06-04 17:55:00,77.2,63.1,30.11,NE,45,8.0,9.0,62,0.00,,,0.00,meteohub,2013-06-04 21:55:00,
2013-06-04 18:00:00,77.0,63.5,30.11,South,180,5.0,9.0,63,0.00,,,0.00,meteohub,2013-06-04 22:00:00,
2013-06-04 18:05:00,77.0,63.5,30.11,South,180,5.0,9.0,63,0.00,,,0.00,meteohub,2013-06-04 22:05:00,
2013-06-04 18:10:00,76.3,64.0,30.11,NW,315,7.0,10.0,66,0.00,,,0.00,meteohub,2013-06-04 22:10:00,
2013-06-04 18:15:00,75.9,63.7,30.11,North,0,6.0,10.0,66,0.00,,,0.00,meteohub,2013-06-04 22:15:00,
2013-06-04 18:20:00,75.7,64.0,30.11,North,0,6.0,10.0,67,0.00,,,0.00,meteohub,2013-06-04 22:20:00,
2013-06-04 18:25:00,75.9,64.6,30.11,NE,45,6.0,10.0,68,0.00,,,0.00,meteohub,2013-06-04 22:25:00,
2013-06-04 18:30:00,75.7,64.0,30.11,NE,45,6.0,8.0,67,0.00,,,0.00,meteohub,2013-06-04 22:30:00,
2013-06-04 18:35:00,75.6,64.2,30.11,NE,45,4.0,8.0,68,0.00,,,0.00,meteohub,2013-06-04 22:35:00,
2013-06-04 18:40:00,75.6,64.2,30.11,NE,45,2.0,8.0,68,0.00,,,0.00,meteohub,2013-06-04 22:40:00,
2013-06-04 18:45:00,75.4,64.0,30.11,NE,45,6.0,8.0,68,0.00,,,0.00,meteohub,2013-06-04 22:45:00,
2013-06-04 18:50:00,75.0,64.2,30.11,NE,45,4.0,8.0,69,0.00,,,0.00,meteohub,2013-06-04 22:50:00,
2013-06-04 18:55:00,74.8,64.4,30.11,NE,45,5.0,8.0,70,0.00,,,0.00,meteohub,2013-06-04 22:55:00,
2013-06-04 19:00:00,74.7,64.6,30.11,North,0,2.0,6.0,71,0.00,,,0.00,meteohub,2013-06-04 23:00:00,
2013-06-04 19:05:00,74.5,64.4,30.11,SSE,158,3.0,7.0,71,0.00,,,0.00,meteohub,2013-06-04 23:05:00,
2013-06-04 19:10:00,74.5,64.0,30.11,East,90,4.0,7.0,70,0.00,,,0.00,meteohub,2013-06-04 23:10:00,
2013-06-04 19:15:00,74.3,63.9,30.11,NE,45,4.0,7.0,70,0.00,,,0.00,meteohub,2013-06-04 23:15:00,
2013-06-04 19:20:00,74.1,63.7,30.11,East,90,3.0,5.0,70,0.00,,,0.00,meteohub,2013-06-04 23:20:00,
2013-06-04 19:25:00,73.9,63.9,30.11,North,0,3.0,6.0,71,0.00,,,0.00,meteohub,2013-06-04 23:25:00,
2013-06-04 19:30:00,73.8,63.7,30.11,NE,45,2.0,6.0,71,0.00,,,0.00,meteohub,2013-06-04 23:30:00,
2013-06-04 19:35:00,73.4,63.5,30.11,NE,45,3.0,4.0,71,0.00,,,0.00,meteohub,2013-06-04 23:35:00,
2013-06-04 19:40:00,73.2,63.7,30.11,SE,135,2.0,4.0,72,0.00,,,0.00,meteohub,2013-06-04 23:40:00,
2013-06-04 19:45:00,72.9,63.3,30.12,North,0,2.0,4.0,72,0.00,,,0.00,meteohub,2013-06-04 23:45:00,
2013-06-04 19:50:00,72.7,63.5,30.12,NE,45,2.0,4.0,73,0.00,,,0.00,meteohub,2013-06-04 23:50:00,
2013-06-04 19:55:00,72.5,63.3,30.12,East,90,2.0,3.0,73,0.00,,,0.00,meteohub,2013-06-04 23:55:00,
2013-06-04 20:01:00,72.3,63.1,30.12,South,180,1.0,3.0,73,0.00,,,0.00,meteohub,2013-06-05 00:01:00,
2013-06-04 20:05:00,72.3,63.1,30.12,South,180,1.0,3.0,73,0.00,,,0.00,meteohub,2013-06-05 00:05:00,
2013-06-04 20:11:00,71.4,63.9,30.12,SW,225,2.0,2.0,77,0.00,,,0.00,meteohub,2013-06-05 00:11:00,
2013-06-04 20:16:00,71.1,63.5,30.12,West,270,2.0,2.0,77,0.00,,,0.00,meteohub,2013-06-05 00:16:00,
2013-06-04 20:21:00,70.7,63.5,30.13,South,180,1.0,2.0,78,0.00,,,0.00,meteohub,2013-06-05 00:21:00,
2013-06-04 20:26:00,70.3,63.5,30.13,NW,315,0.0,2.0,79,0.00,,,0.00,meteohub,2013-06-05 00:26:00,
2013-06-04 20:31:00,70.0,63.5,30.13,South,180,0.0,2.0,80,0.00,,,0.00,meteohub,2013-06-05 00:31:00,
2013-06-04 20:36:00,69.4,64.0,30.13,South,180,2.0,2.0,83,0.00,,,0.00,meteohub,2013-06-05 00:36:00,
2013-06-04 20:41:00,68.9,63.5,30.14,South,180,1.0,2.0,83,0.00,,,0.00,meteohub,2013-06-05 00:41:00,
2013-06-04 20:46:00,68.4,63.3,30.13,South,180,0.0,2.0,84,0.00,,,0.00,meteohub,2013-06-05 00:46:00,
2013-06-04 20:51:00,67.8,63.5,30.14,South,180,1.0,2.0,86,0.00,,,0.00,meteohub,2013-06-05 00:51:00,
2013-06-04 20:56:00,67.3,63.3,30.13,South,180,1.0,2.0,87,0.00,,,0.00,meteohub,2013-06-05 00:56:00,
2013-06-04 21:01:00,66.9,63.0,30.14,West,270,2.0,2.0,87,0.00,,,0.00,meteohub,2013-06-05 01:01:00,
2013-06-04 21:06:00,66.6,63.0,30.14,West,270,1.0,2.0,88,0.00,,,0.00,meteohub,2013-06-05 01:06:00,
2013-06-04 21:12:00,66.4,63.0,30.14,West,270,2.0,2.0,89,0.00,,,0.00,meteohub,2013-06-05 01:12:00,
2013-06-04 21:17:00,66.2,62.8,30.14,South,180,2.0,2.0,89,0.00,,,0.00,meteohub,2013-06-05 01:17:00,
2013-06-04 21:22:00,66.2,62.8,30.14,West,270,2.0,2.0,89,0.00,,,0.00,meteohub,2013-06-05 01:22:00,
2013-06-04 21:27:00,66.2,62.8,30.15,South,180,1.0,2.0,89,0.00,,,0.00,meteohub,2013-06-05 01:27:00,
2013-06-04 21:32:00,66.0,63.3,30.14,SE,135,1.0,2.0,91,0.00,,,0.00,meteohub,2013-06-05 01:32:00,
2013-06-04 21:37:00,66.0,63.3,30.14,South,180,1.0,2.0,91,0.00,,,0.00,meteohub,2013-06-05 01:37:00,
2013-06-04 21:42:00,65.8,63.1,30.15,NW,315,0.0,1.0,91,0.00,,,0.00,meteohub,2013-06-05 01:42:00,
2013-06-04 21:47:00,65.7,63.0,30.15,SW,225,1.0,2.0,91,0.00,,,0.00,meteohub,2013-06-05 01:47:00,
2013-06-04 21:52:00,65.5,62.8,30.16,SW,225,2.0,2.0,91,0.00,,,0.00,meteohub,2013-06-05 01:52:00,
2013-06-04 21:57:00,65.5,63.1,30.16,SW,225,2.0,2.0,92,0.00,,,0.00,meteohub,2013-06-05 01:57:00,
2013-06-04 22:02:00,65.5,63.1,30.16,SW,225,2.0,2.0,92,0.00,,,0.00,meteohub,2013-06-05 02:02:00,
2013-06-04 22:07:00,65.5,63.1,30.16,SW,225,2.0,2.0,92,0.00,,,0.00,meteohub,2013-06-05 02:07:00,
2013-06-04 22:12:00,65.3,63.0,30.16,South,180,2.0,2.0,92,0.00,,,0.00,meteohub,2013-06-05 02:12:00,
2013-06-04 22:17:00,65.1,62.8,30.16,SW,225,1.0,2.0,92,0.00,,,0.00,meteohub,2013-06-05 02:17:00,
2013-06-04 22:22:00,64.9,62.6,30.16,SE,135,2.0,2.0,92,0.00,,,0.00,meteohub,2013-06-05 02:22:00,
2013-06-04 22:27:00,64.9,62.6,30.17,West,270,1.0,2.0,92,0.00,,,0.00,meteohub,2013-06-05 02:27:00,
2013-06-04 22:32:00,64.9,62.8,30.17,SE,135,1.0,2.0,93,0.00,,,0.00,meteohub,2013-06-05 02:32:00,
2013-06-04 22:37:00,64.9,62.8,30.17,South,180,1.0,2.0,93,0.00,,,0.00,meteohub,2013-06-05 02:37:00,
2013-06-04 22:42:00,64.8,62.6,30.17,North,0,0.0,2.0,93,0.00,,,0.00,meteohub,2013-06-05 02:42:00,
2013-06-04 22:47:00,64.8,62.6,30.17,SE,135,1.0,2.0,93,0.00,,,0.00,meteohub,2013-06-05 02:47:00,
2013-06-04 22:52:00,64.6,62.4,30.17,SE,135,1.0,2.0,93,0.00,,,0.00,meteohub,2013-06-05 02:52:00,
2013-06-04 22:57:00,64.4,62.4,30.17,North,0,0.0,2.0,93,0.00,,,0.00,meteohub,2013-06-05 02:57:00,
2013-06-04 23:02:00,64.4,62.4,30.17,SW,225,2.0,2.0,93,0.00,,,0.00,meteohub,2013-06-05 03:02:00,
2013-06-04 23:07:00,64.0,61.7,30.17,SW,225,0.0,2.0,92,0.00,,,0.00,meteohub,2013-06-05 03:07:00,
2013-06-04 23:12:00,63.7,61.7,30.17,SW,225,0.0,2.0,93,0.00,,,0.00,meteohub,2013-06-05 03:12:00,
2013-06-04 23:17:00,63.5,61.5,30.17,SE,135,1.0,2.0,93,0.00,,,0.00,meteohub,2013-06-05 03:17:00,
2013-06-04 23:22:00,63.3,61.3,30.17,NW,315,1.0,2.0,93,0.00,,,0.00,meteohub,2013-06-05 03:22:00,
2013-06-04 23:27:00,63.3,61.5,30.17,SW,225,1.0,2.0,94,0.00,,,0.00,meteohub,2013-06-05 03:27:00,
2013-06-04 23:33:00,63.3,61.5,30.17,South,180,1.0,2.0,94,0.00,,,0.00,meteohub,2013-06-05 03:33:00,
2013-06-04 23:38:00,63.1,61.3,30.17,SW,225,2.0,2.0,94,0.00,,,0.00,meteohub,2013-06-05 03:38:00,
2013-06-04 23:43:00,63.1,61.3,30.17,South,180,2.0,2.0,94,0.00,,,0.00,meteohub,2013-06-05 03:43:00,
2013-06-04 23:48:00,63.1,61.3,30.17,SE,135,1.0,2.0,94,0.00,,,0.00,meteohub,2013-06-05 03:48:00,
2013-06-04 23:53:00,63.1,61.3,30.17,South,180,1.0,2.0,94,0.00,,,0.00,meteohub,2013-06-05 03:53:00,
2013-06-04 23:58:00,63.0,61.2,30.18,SW,225,1.0,2.0,94,0.00,,,0.00,meteohub,2013-06-05 03:58:00,